Location: Altmatt
(47.1333°N, 8.7000°E)
Time: 19:05:00
(UTC+00:00)

SL-16 R/B - Pass Details

Date: 13 July 2020
Orbit: 839 x 850 km, 71.0° (Epoch: 12 August)

Event Time Altitude Azimuth Distance (km) Brightness Sun altitude
Exits shadow 21:04:31 - 188° (S) 2,502 4.2 -13.7°
Reaches altitude 10° 21:04:38 10° 188° (S) 2,459 4.2 -13.7°
Maximum altitude 21:10:09 57° 111° (ESE) 996 2.3 -14.2°
Drops below altitude 10° 21:15:42 10° 34° (NE) 2,482 4.9 -14.8°
Sets 21:18:12 0° 31° (NNE) 3,423 5.8 -15.0°
